�v������,���r���O(���x),�����t���O,���r���O(���x),�����t���O,��1(���x),�����t���O,��2���x),�����t���O,�������x,�����t���O,�C�ۑ�(���x),�����t���O,�C�ۑ�(���x),�����t���O
8/1/2003 0:00,28.2,0,73.5,0,27.1,0,28.4,0,23.2,0,22,0,91.8,0
8/1/2003 0:15,28.1,0,72.3,0,27.2,0,28.3,0,23.3,0,21.9,0,91.8,0
8/1/2003 0:30,28.1,0,72.7,0,27.2,0,28.3,0,23.3,0,21.8,0,91.8,0
8/1/2003 0:45,28,0,71.9,0,27.2,0,28.2,0,23.4,0,21.8,0,91.8,0
8/1/2003 1:00,28.1,0,72.2,0,27.3,0,28.2,0,23.5,0,21.7,0,91.8,0
8/1/2003 1:15,27.9,0,73,0,27.3,0,28.1,0,23.5,0,21.6,0,92.3,0
8/1/2003 1:30,27.8,0,73.9,0,27.3,0,28,0,23.6,0,21.5,0,92.8,0
8/1/2003 1:45,27.7,0,74.2,0,27.4,0,28,0,23.6,0,21.5,0,93.3,0
8/1/2003 2:00,27.7,0,73.8,0,27.4,0,27.9,0,23.7,0,21.4,0,93.8,0
8/1/2003 2:15,27.6,0,74.4,0,27.4,0,27.9,0,23.7,0,21.4,0,93.6,0
8/1/2003 2:30,27.5,0,74.8,0,27.3,0,27.9,0,23.7,0,21.3,0,93.3,0
8/1/2003 2:45,27.5,0,74.9,0,27.3,0,27.8,0,23.8,0,21.3,0,93.1,0
8/1/2003 3:00,27.4,0,75.1,0,27.3,0,27.8,0,23.8,0,21.3,0,92.8,0
8/1/2003 3:15,27.4,0,75.2,0,27.3,0,27.7,0,23.8,0,21.3,0,92.8,0
8/1/2003 3:30,27.3,0,75.2,0,27.3,0,27.7,0,23.9,0,21.2,0,92.8,0
8/1/2003 3:45,27.3,0,75.2,0,27.3,0,27.6,0,23.9,0,21.2,0,92.8,0
8/1/2003 4:00,27.3,0,75.2,0,27.2,0,27.6,0,23.9,0,21.2,0,92.8,0
8/1/2003 4:15,27.2,0,75.3,0,27.2,0,27.5,0,24,0,21.2,0,92.6,0
8/1/2003 4:30,27.2,0,75.3,0,27.2,0,27.5,0,24,0,21.2,0,92.3,0
8/1/2003 4:45,27.1,0,75.3,0,27.1,0,27.4,0,24,0,21.3,0,92.1,0
8/1/2003 5:00,27.1,0,75.3,0,27.1,0,27.4,0,24.1,0,21.3,0,91.8,0
8/1/2003 5:15,27,0,75.2,0,27.1,0,27.3,0,24,0,21.2,0,91.6,0
8/1/2003 5:30,27,0,75.2,0,27,0,27.3,0,24,0,21.1,0,91.3,0
8/1/2003 5:45,26.9,0,74.9,0,27,0,27.3,0,24,0,21.1,0,91.1,0
8/1/2003 6:00,26.8,0,74.9,0,27,0,27.2,0,24,0,21,0,90.8,0
8/1/2003 6:15,26.8,0,74.9,0,26.9,0,27.2,0,24.1,0,21,0,90.8,0
8/1/2003 6:30,26.7,0,74.8,0,26.9,0,27.1,0,24.1,0,21,0,90.8,0
8/1/2003 6:45,26.7,0,74.8,0,26.9,0,27.1,0,24.1,0,21.1,0,90.8,0
8/1/2003 7:00,26.6,0,74.9,0,26.9,0,27.1,0,24.2,0,21.1,0,90.8,0
8/1/2003 7:15,26.7,0,76,0,26.9,0,27,0,23.7,0,21.3,0,90.1,0
8/1/2003 7:30,26.8,0,76.4,0,26.9,0,27,0,23.6,0,21.5,0,89.3,0
8/1/2003 7:45,26.9,0,76.1,0,26.9,0,27,0,23.6,0,21.7,0,88.6,0
8/1/2003 8:00,26.1,0,72.4,0,26.8,0,27,0,23.6,0,21.9,0,87.8,0
8/1/2003 8:15,25.7,0,73.1,0,26.8,0,26.9,0,23.6,0,21.9,0,87.8,0
8/1/2003 8:30,25.6,0,73.4,0,26.8,0,26.9,0,23.6,0,21.9,0,87.8,0
8/1/2003 8:45,25.4,0,74.6,0,26.7,0,26.8,0,23.4,0,21.9,0,87.8,0
8/1/2003 9:00,25.2,0,75.1,0,26.6,0,26.8,0,23.5,0,21.9,0,87.8,0
8/1/2003 9:15,25.4,0,74.8,0,26.5,0,26.7,0,23.5,0,21.8,0,88.6,0
8/1/2003 9:30,25.3,0,75.1,0,26.4,0,26.7,0,23.5,0,21.8,0,89.3,0
8/1/2003 9:45,25.2,0,75.7,0,26.4,0,26.7,0,23.5,0,21.7,0,90.1,0
8/1/2003 10:00,25.3,0,75.5,0,26.3,0,26.6,0,23.5,0,21.7,0,90.8,0
8/1/2003 10:15,25.2,0,76.1,0,26.3,0,26.6,0,23.5,0,21.9,0,90.3,0
8/1/2003 10:30,25.4,0,77.5,0,26.2,0,26.6,0,23.5,0,22.1,0,89.8,0
8/1/2003 10:45,25.4,0,77.5,0,26.3,0,26.6,0,23.5,0,22.4,0,89.3,0
8/1/2003 11:00,25.6,0,76.7,0,26.3,0,26.7,0,23.6,0,22.6,0,88.8,0
8/1/2003 11:15,25.9,0,75.4,0,26.4,0,26.7,0,23.6,0,22.7,0,87.6,0
8/1/2003 11:30,26.3,0,75.8,0,26.5,0,26.9,0,23.6,0,22.8,0,86.3,0
8/1/2003 11:45,26.3,0,76.2,0,26.7,0,27,0,23.5,0,23,0,85.1,0
8/1/2003 12:00,26.5,0,75.4,0,26.8,0,27.1,0,23.6,0,23.1,0,83.8,0
8/1/2003 12:15,26.7,0,75.3,0,26.9,0,27.2,0,23.6,0,23.3,0,83.1,0
8/1/2003 12:30,26.8,0,74.9,0,27.1,0,27.4,0,23.4,0,23.5,0,82.3,0
8/1/2003 12:45,26.9,0,75.3,0,27.3,0,27.5,0,23.5,0,23.8,0,81.6,0
8/1/2003 13:00,27.1,0,75.1,0,27.4,0,27.7,0,23.4,0,24,0,80.8,0
8/1/2003 13:15,27.2,0,75,0,27.6,0,27.8,0,23.4,0,24.6,0,80.1,0
8/1/2003 13:30,27.4,0,74.6,0,27.7,0,28,0,23.5,0,25.2,0,79.3,0
8/1/2003 13:45,27.4,0,74,0,27.9,0,28.1,0,23.5,0,25.8,0,78.6,0
8/1/2003 14:00,27.3,0,73.8,0,27.9,0,28.2,0,23.5,0,26.4,0,77.8,0
8/1/2003 14:15,27.4,0,73.3,0,28,0,28.3,0,23.6,0,26.3,0,77.8,0
8/1/2003 14:30,27.3,0,73.7,0,28.1,0,28.3,0,23.5,0,26.2,0,77.8,0
8/1/2003 14:45,27.3,0,73.9,0,28.2,0,28.4,0,23.6,0,26.2,0,77.8,0
8/1/2003 15:00,27.4,0,74.4,0,28.2,0,28.4,0,23.6,0,26.1,0,77.8,0
8/1/2003 15:15,27.5,0,74.1,0,28.3,0,28.4,0,23.6,0,25.6,0,80.3,0
8/1/2003 15:30,27.6,0,73.9,0,28.4,0,28.5,0,23.6,0,25.1,0,82.8,0
8/1/2003 15:45,27.4,0,75.1,0,28.4,0,28.5,0,23.6,0,24.7,0,85.3,0
8/1/2003 16:00,27.4,0,75.2,0,28.4,0,28.6,0,23.6,0,24.2,0,87.8,0
8/1/2003 16:15,27.2,0,75.8,0,28.5,0,28.5,0,23.6,0,24.1,0,88.6,0
8/1/2003 16:30,27.1,0,75.8,0,28.5,0,28.6,0,23.7,0,24,0,89.3,0
8/1/2003 16:45,26.8,0,77,0,28.5,0,28.6,0,23.6,0,23.9,0,90.1,0
8/1/2003 17:00,26.6,0,78.2,0,28.5,0,28.6,0,23.7,0,23.8,0,90.8,0
8/1/2003 17:15,26.7,0,78.1,0,28.5,0,28.6,0,23.6,0,23.7,0,90.8,0
8/1/2003 17:30,26.5,0,79,0,28.5,0,28.6,0,23.6,0,23.6,0,90.8,0
8/1/2003 17:45,26.3,0,78.8,0,28.5,0,28.5,0,23.7,0,23.5,0,90.8,0
8/1/2003 18:00,26.1,0,79.5,0,28.5,0,28.5,0,23.7,0,23.4,0,90.8,0
8/1/2003 18:15,26.4,0,78.2,0,28.5,0,28.5,0,23.7,0,23.3,0,90.8,0
8/1/2003 18:30,26.8,0,81.1,0,28.4,0,28.5,0,23.8,0,23.2,0,90.8,0
8/1/2003 18:45,26.7,0,78.6,0,28.4,0,28.4,0,23.2,0,23.1,0,90.8,0
8/1/2003 19:00,26.7,0,78.3,0,28.4,0,28.4,0,23.3,0,23,0,90.8,0
8/1/2003 19:15,26.7,0,77.7,0,28.3,0,28.3,0,23.4,0,23,0,90.8,0
8/1/2003 19:30,26.7,0,77.5,0,28.3,0,28.3,0,23.4,0,22.9,0,90.8,0
8/1/2003 19:45,26.9,0,77.9,0,28.2,0,28.2,0,23.5,0,22.9,0,90.8,0
8/1/2003 20:00,27,0,79.2,0,28.2,0,28.2,0,23.5,0,22.9,0,90.8,0
8/1/2003 20:15,27.4,0,79,0,28.2,0,28.2,0,23.6,0,22.9,0,90.8,0
8/1/2003 20:30,27.2,0,78,0,28.1,0,28.1,0,23.6,0,22.9,0,90.8,0
8/1/2003 20:45,27.2,0,77.2,0,28.1,0,28.1,0,23.3,0,23,0,90.8,0
8/1/2003 21:00,27.1,0,76.8,0,28.1,0,28,0,23.4,0,23,0,90.8,0
8/1/2003 21:15,27.3,0,77.7,0,28.1,0,28,0,23.4,0,22.9,0,91.1,0
8/1/2003 21:30,27.2,0,77.5,0,28,0,28,0,23.1,0,22.8,0,91.3,0
8/1/2003 21:45,27.3,0,76.8,0,28,0,27.9,0,23.2,0,22.7,0,91.6,0
8/1/2003 22:00,27.3,0,76.1,0,27.9,0,27.9,0,23.2,0,22.6,0,91.8,0
8/1/2003 22:15,27.3,0,75.8,0,27.9,0,27.8,0,23.2,0,22.6,0,91.8,0
8/1/2003 22:30,27.3,0,76.1,0,27.8,0,27.8,0,23,0,22.6,0,91.8,0
8/1/2003 22:45,27.4,0,76.3,0,27.8,0,27.7,0,23.1,0,22.6,0,91.8,0
8/1/2003 23:00,27.5,0,76.1,0,27.7,0,27.7,0,23.1,0,22.6,0,91.8,0
8/1/2003 23:15,27.4,0,76.2,0,27.6,0,27.6,0,23.2,0,22.5,0,92.3,0
8/1/2003 23:30,27.4,0,76.6,0,27.5,0,27.6,0,23.4,0,22.4,0,92.8,0
8/1/2003 23:45,27.3,0,77.2,0,27.5,0,27.6,0,23.4,0,22.3,0,93.3,0
8/2/2003 0:00,27.2,0,77.4,0,27.6,0,27.5,0,23.4,0,22.2,0,93.8,0
8/2/2003 0:15,27.2,0,77.5,0,27.7,0,27.5,0,23.5,0,22.1,0,93.8,0
8/2/2003 0:30,27.2,0,77.6,0,27.7,0,27.5,0,23.5,0,22.1,0,93.8,0
8/2/2003 0:45,27.1,0,77.6,0,27.8,0,27.4,0,23.5,0,22,0,93.8,0
8/2/2003 1:00,27,0,77.6,0,27.8,0,27.4,0,23.6,0,22,0,93.8,0
8/2/2003 1:15,27,0,77.7,0,27.9,0,27.3,0,23.6,0,22,0,93.8,0
8/2/2003 1:30,27,0,77.8,0,27.9,0,27.3,0,23.6,0,22,0,93.8,0
8/2/2003 1:45,26.9,0,77.3,0,28,0,27.3,0,23.7,0,22.1,0,93.8,0
8/2/2003 2:00,26.9,0,77.1,0,28,0,27.2,0,23.6,0,22.1,0,93.8,0
8/2/2003 2:15,26.8,0,77.5,0,28,0,27.2,0,23.7,0,22.1,0,93.8,0
8/2/2003 2:30,26.8,0,77.7,0,28.1,0,27.2,0,23.7,0,22,0,93.8,0
8/2/2003 2:45,26.8,0,77.8,0,28.1,0,27.1,0,23.7,0,22,0,93.8,0
8/2/2003 3:00,26.7,0,77.9,0,28.1,0,27.1,0,23.8,0,22,0,93.8,0
8/2/2003 3:15,26.7,0,78,0,28.1,0,27,0,23.8,0,21.9,0,93.8,0
8/2/2003 3:30,26.7,0,78,0,28.2,0,27,0,23.8,0,21.9,0,93.8,0
8/2/2003 3:45,26.6,0,78,0,28.2,0,27,0,23.9,0,21.8,0,93.8,0
8/2/2003 4:00,26.6,0,78.1,0,28.2,0,26.9,0,23.9,0,21.8,0,93.8,0
8/2/2003 4:15,26.6,0,78.1,0,28.2,0,26.9,0,23.9,0,21.8,0,93.8,0
8/2/2003 4:30,26.6,0,78.2,0,28.2,0,26.8,0,23.9,0,21.9,0,93.8,0
8/2/2003 4:45,26.6,0,79.2,0,28.1,0,26.8,0,23.7,0,21.9,0,93.8,0
8/2/2003 5:00,26.4,0,77.3,0,28.1,0,26.8,0,23.7,0,22,0,93.8,0
8/2/2003 5:15,26.3,0,77.5,0,28,0,26.7,0,23.7,0,22,0,93.6,0
8/2/2003 5:30,26.1,0,77.4,0,28,0,26.7,0,23.8,0,22.1,0,93.3,0
8/2/2003 5:45,26.2,0,77.5,0,27.9,0,26.7,0,23.8,0,22.1,0,93.1,0
8/2/2003 6:00,26,0,77.9,0,27.9,0,26.7,0,23.8,0,22.2,0,92.8,0
8/2/2003 6:15,26.1,0,78.9,0,27.8,0,26.6,0,23.7,0,22.4,0,92.6,0
8/2/2003 6:30,26.3,0,79.8,0,27.7,0,26.6,0,23.6,0,22.6,0,92.3,0
8/2/2003 6:45,25.9,0,79.3,0,27.6,0,26.6,0,23.6,0,22.8,0,92.1,0
8/2/2003 7:00,25.8,0,79.5,0,27.5,0,26.6,0,23.6,0,23,0,91.8,0
8/2/2003 7:15,25.7,0,80.8,0,27.4,0,26.6,0,23.6,0,23.4,0,90.6,0
8/2/2003 7:30,25.8,0,80.4,0,27.3,0,26.6,0,23.7,0,23.8,0,89.3,0
8/2/2003 7:45,25.8,0,80.9,0,27.2,0,26.6,0,23.7,0,24.2,0,88.1,0
8/2/2003 8:00,26,0,80.4,0,27.2,0,26.6,0,23.7,0,24.6,0,86.8,0
8/2/2003 8:15,26,0,80.8,0,27.3,0,26.7,0,23.7,0,25.2,0,84.8,0
8/2/2003 8:30,26.5,0,80,0,27.3,0,26.8,0,23.8,0,25.7,0,82.8,0
8/2/2003 8:45,26.5,0,79.7,0,27.4,0,27,0,23.8,0,26.3,0,80.8,0
8/2/2003 9:00,26.6,0,79.8,0,27.5,0,27.1,0,23.8,0,26.9,0,78.8,0
8/2/2003 9:15,27.3,0,78.3,0,27.7,0,27.3,0,23.8,0,27.1,0,78.3,0
8/2/2003 9:30,27.7,0,77,0,28,0,27.6,0,23.9,0,27.4,0,77.8,0
8/2/2003 9:45,28.1,0,76.8,0,28.2,0,27.9,0,23.9,0,27.6,0,77.3,0
8/2/2003 10:00,28.1,0,77.1,0,28.5,0,28.2,0,23.9,0,27.9,0,76.8,0
8/2/2003 10:15,28.7,0,75.1,0,28.7,0,28.5,0,24,0,28.1,0,75.8,0
8/2/2003 10:30,29,0,74,0,29,0,28.7,0,24,0,28.4,0,74.8,0
8/2/2003 10:45,29.1,0,73.3,0,29.3,0,29,0,24,0,28.6,0,73.8,0
8/2/2003 11:00,29.3,0,71.9,0,29.5,0,29.2,0,24,0,28.9,0,72.8,0
8/2/2003 11:15,29.6,0,71.2,0,29.7,0,29.4,0,23.9,0,28.9,0,73.1,0
8/2/2003 11:30,29.8,0,68.3,0,29.9,0,29.6,0,24,0,28.9,0,73.3,0
8/2/2003 11:45,30,0,68.4,0,30.1,0,29.8,0,24,0,29,0,73.6,0
8/2/2003 12:00,30.2,0,66.6,0,30.3,0,29.9,0,24,0,29,0,73.8,0
8/2/2003 12:15,30.4,0,66.1,0,30.5,0,30.1,0,24.1,0,29.1,0,73.8,0
8/2/2003 12:30,30.6,0,63.8,0,30.7,0,30.3,0,24.1,0,29.1,0,73.8,0
8/2/2003 12:45,30.8,0,62.6,0,30.9,0,30.5,0,24.1,0,29.2,0,73.8,0
8/2/2003 13:00,31,0,62.7,0,31.1,0,30.7,0,24.2,0,29.3,0,73.8,0
8/2/2003 13:15,31.2,0,62.3,0,31.2,0,30.9,0,24.2,0,29.5,0,73.6,0
8/2/2003 13:30,31.3,0,62.5,0,31.4,0,31.2,0,24.2,0,29.7,0,73.3,0
8/2/2003 13:45,31.5,0,60.7,0,31.5,0,31.4,0,24.2,0,30,0,73.1,0
8/2/2003 14:00,31.5,0,60.8,0,31.6,0,31.5,0,24.2,0,30.2,0,72.8,0
8/2/2003 14:15,31.5,0,61.8,0,31.7,0,31.6,0,24.2,0,30.4,0,71.8,0
8/2/2003 14:30,31.5,0,62,0,31.7,0,31.7,0,24.3,0,30.5,0,70.8,0
8/2/2003 14:45,31.6,0,63.4,0,31.8,0,31.8,0,24.3,0,30.7,0,69.8,0
8/2/2003 15:00,31.7,0,64.3,0,31.9,0,31.8,0,24.4,0,30.9,0,68.8,0
8/2/2003 15:15,31.6,0,64.4,0,32,0,31.9,0,24.2,0,30.7,0,68.6,0
8/2/2003 15:30,31.6,0,64.5,0,32,0,32,0,24.2,0,30.5,0,68.3,0
8/2/2003 15:45,31.4,0,64.4,0,32,0,32,0,24.3,0,30.3,0,68.1,0
8/2/2003 16:00,31.4,0,65.9,0,31.9,0,32.1,0,24.3,0,30.1,0,67.8,0
8/2/2003 16:15,31.3,0,66.1,0,31.9,0,32.1,0,24.4,0,30.2,0,68.1,0
8/2/2003 16:30,31.2,0,65.4,0,31.9,0,32.1,0,24.3,0,30.2,0,68.3,0
8/2/2003 16:45,31,0,66.6,0,31.8,0,32.1,0,24.3,0,30.3,0,68.6,0
8/2/2003 17:00,30.9,0,67.2,0,31.8,0,32.1,0,24.4,0,30.4,0,68.8,0
8/2/2003 17:15,30.7,0,66.5,0,31.7,0,32.1,0,24.4,0,30.3,0,69.3,0
8/2/2003 17:30,30.7,0,68.3,0,31.7,0,32.1,0,24.5,0,30.2,0,69.8,0
8/2/2003 17:45,30.7,0,68.9,0,31.6,0,32,0,24.5,0,30.1,0,70.3,0
8/2/2003 18:00,30.3,0,68.6,0,31.6,0,32,0,24.6,0,30,0,70.8,0
8/2/2003 18:15,30.4,0,70.8,0,31.5,0,32,0,24.6,0,29.6,0,72.6,0
8/2/2003 18:30,30.3,0,71,0,31.4,0,31.9,0,24.7,0,29.3,0,74.3,0
8/2/2003 18:45,30.3,0,72.6,0,31.3,0,31.9,0,24.7,0,28.9,0,76.1,0
8/2/2003 19:00,30.4,0,73.2,0,31.2,0,31.8,0,24.1,0,28.6,0,77.8,0
8/2/2003 19:15,30.3,0,74.1,0,31.1,0,31.7,0,24.2,0,28.5,0,78.3,0
8/2/2003 19:30,30.2,0,74,0,30.9,0,31.7,0,24.3,0,28.3,0,78.8,0
8/2/2003 19:45,30.2,0,74.5,0,30.8,0,31.6,0,24.3,0,28.2,0,79.3,0
8/2/2003 20:00,30.1,0,74.8,0,30.7,0,31.5,0,24.4,0,28.1,0,79.8,0
8/2/2003 20:15,30.1,0,75,0,30.6,0,31.5,0,24.4,0,28,0,80.1,0
8/2/2003 20:30,30,0,75.4,0,30.5,0,31.4,0,24.5,0,27.9,0,80.3,0
8/2/2003 20:45,30,0,75.1,0,30.4,0,31.3,0,24.5,0,27.9,0,80.6,0
8/2/2003 21:00,30,0,74.6,0,30.3,0,31.2,0,24.6,0,27.8,0,80.8,0
8/2/2003 21:15,30,0,74,0,30.2,0,31.1,0,24.1,0,27.8,0,81.1,0
8/2/2003 21:30,30.2,0,76,0,30.1,0,31.1,0,24.2,0,27.8,0,81.3,0
8/2/2003 21:45,30.3,0,76.8,0,30,0,31,0,24.2,0,27.8,0,81.6,0
8/2/2003 22:00,30.3,0,79.5,0,30,0,30.9,0,24.3,0,27.8,0,81.8,0
8/2/2003 22:15,30.6,0,73.2,0,29.8,0,30.8,0,24.3,0,27.8,0,82.1,0
8/2/2003 22:30,30.6,0,73.9,0,29.7,0,30.8,0,24.4,0,27.8,0,82.3,0
8/2/2003 22:45,30.5,0,73.6,0,29.6,0,30.7,0,24.5,0,27.8,0,82.6,0
8/2/2003 23:00,30.5,0,73.6,0,29.5,0,30.6,0,24.6,0,27.8,0,82.8,0
8/2/2003 23:15,30.2,0,74.1,0,29.4,0,30.5,0,24.6,0,27.6,0,83.8,0
8/2/2003 23:30,30.2,0,74.1,0,29.4,0,30.5,0,24.7,0,27.5,0,84.8,0
8/2/2003 23:45,30.1,0,74.1,0,29.4,0,30.5,0,24.3,0,27.3,0,85.8,0
8/3/2003 0:00,30.1,0,75.8,0,29.3,0,30.4,0,24.2,0,27.2,0,86.8,0
8/3/2003 0:15,30,0,75.5,0,29.3,0,30.3,0,24.2,0,27.2,0,85.8,0
8/3/2003 0:30,30,0,75.5,0,29.3,0,30.3,0,24.3,0,27.1,0,84.8,0
8/3/2003 0:45,29.9,0,75.5,0,29.3,0,30.3,0,24.3,0,27.1,0,83.8,0
8/3/2003 1:00,29.8,0,75.4,0,29.3,0,30.3,0,24.4,0,27.1,0,82.8,0
8/3/2003 1:15,29.8,0,75.4,0,29.3,0,30.2,0,24.4,0,27,0,83.1,0
8/3/2003 1:30,29.8,0,75.4,0,29.3,0,30.2,0,24.5,0,26.9,0,83.3,0
8/3/2003 1:45,29.7,0,75.5,0,29.3,0,30.1,0,24.5,0,26.9,0,83.6,0
8/3/2003 2:00,29.6,0,75.5,0,29.2,0,30.1,0,24.6,0,26.8,0,83.8,0
8/3/2003 2:15,29.6,0,75.5,0,29.2,0,30,0,24.6,0,26.8,0,83.1,0
8/3/2003 2:30,29.6,0,75.6,0,29.2,0,30,0,24.7,0,26.7,0,82.3,0
8/3/2003 2:45,29.5,0,75.6,0,29.1,0,29.9,0,24.7,0,26.7,0,81.6,0
8/3/2003 3:00,29.5,0,75.6,0,29.1,0,29.9,0,24.8,0,26.7,0,80.8,0
8/3/2003 3:15,29.4,0,75.7,0,29.1,0,29.8,0,24.8,0,26.6,0,81.1,0
8/3/2003 3:30,29.4,0,75.7,0,29.1,0,29.8,0,24.9,0,26.5,0,81.3,0
8/3/2003 3:45,29.3,0,75.9,0,29.1,0,29.8,0,24.7,0,26.4,0,81.6,0
8/3/2003 4:00,29.3,0,75.9,0,29.1,0,29.7,0,24.7,0,26.3,0,81.8,0
8/3/2003 4:15,29.2,0,75.8,0,29.1,0,29.7,0,24.8,0,26.2,0,82.6,0
8/3/2003 4:30,29.2,0,75.8,0,29.1,0,29.6,0,24.8,0,26.2,0,83.3,0
8/3/2003 4:45,29.1,0,75.8,0,29.1,0,29.6,0,24.8,0,26.1,0,84.1,0
8/3/2003 5:00,29.1,0,75.8,0,29.1,0,29.6,0,24.9,0,26.1,0,84.8,0
8/3/2003 5:15,29,0,75.8,0,29.1,0,29.5,0,24.8,0,26.1,0,85.1,0
8/3/2003 5:30,29,0,75.8,0,29.1,0,29.5,0,24.8,0,26.1,0,85.3,0
8/3/2003 5:45,29,0,75.9,0,29.1,0,29.4,0,24.8,0,26.1,0,85.6,0
8/3/2003 6:00,28.9,0,76,0,29.1,0,29.4,0,24.9,0,26.1,0,85.8,0
8/3/2003 6:15,28.9,0,76.2,0,29.1,0,29.4,0,24.9,0,26.4,0,84.8,0
8/3/2003 6:30,28.9,0,76.3,0,29.1,0,29.4,0,24.9,0,26.7,0,83.8,0
8/3/2003 6:45,28.9,0,76.2,0,29.2,0,29.4,0,25,0,27,0,82.8,0
8/3/2003 7:00,28.9,0,76.2,0,29.3,0,29.5,0,25,0,27.3,0,81.8,0
8/3/2003 7:15,29,0,76.4,0,29.4,0,29.5,0,24.5,0,27.6,0,80.6,0
8/3/2003 7:30,29.4,0,75.3,0,29.5,0,29.6,0,24.6,0,27.8,0,79.3,0
8/3/2003 7:45,29.9,0,74.1,0,29.6,0,29.6,0,24.6,0,28.1,0,78.1,0
8/3/2003 8:00,29.9,0,73.1,0,29.8,0,29.8,0,24.7,0,28.4,0,76.8,0
8/3/2003 8:15,30.2,0,71,0,29.9,0,30,0,24.7,0,28.3,0,77.3,0
8/3/2003 8:30,30.5,0,69.8,0,30.2,0,30.2,0,24.1,0,28.3,0,77.8,0
8/3/2003 8:45,30.9,0,69.2,0,30.3,0,30.4,0,24,0,28.2,0,78.3,0
8/3/2003 9:00,30.6,0,68.7,0,30.4,0,30.5,0,24.1,0,28.2,0,78.8,0
8/3/2003 9:15,30.8,0,67.8,0,30.6,0,30.7,0,24.1,0,28.3,0,78.6,0
8/3/2003 9:30,31,0,65.5,0,30.8,0,30.9,0,23.9,0,28.5,0,78.3,0
8/3/2003 9:45,31.4,0,63,0,31.2,0,31.1,0,23.9,0,28.6,0,78.1,0
8/3/2003 10:00,31.6,0,62.9,0,31.4,0,31.4,0,24,0,28.8,0,77.8,0
8/3/2003 10:15,31.8,0,64.3,0,31.7,0,31.6,0,24.1,0,29.2,0,75.6,0
8/3/2003 10:30,32.2,0,62.9,0,32,0,31.8,0,24.1,0,29.7,0,73.3,0
8/3/2003 10:45,32.2,0,63.7,0,32.2,0,32,0,24.2,0,30.1,0,71.1,0
8/3/2003 11:00,32.3,0,62.8,0,32.3,0,32.2,0,24.2,0,30.6,0,68.8,0
8/3/2003 11:15,32.4,0,63.8,0,32.4,0,32.3,0,24.3,0,30.4,0,69.8,0
8/3/2003 11:30,32.5,0,63.2,0,32.6,0,32.4,0,24,0,30.2,0,70.8,0
8/3/2003 11:45,32.5,0,62.9,0,32.7,0,32.5,0,24.2,0,30.1,0,71.8,0
8/3/2003 12:00,32.6,0,62.8,0,32.8,0,32.6,0,24.2,0,29.9,0,72.8,0
8/3/2003 12:15,31.9,0,59.5,0,32.8,0,32.6,0,24.3,0,29.9,0,72.6,0
8/3/2003 12:30,31.1,0,52.7,0,32.9,0,32.7,0,24.3,0,29.9,0,72.3,0
8/3/2003 12:45,30.4,0,48.5,0,33,0,32.7,0,24.4,0,29.9,0,72.1,0
8/3/2003 13:00,30,0,46.1,0,33.1,0,32.8,0,24.6,0,29.9,0,71.8,0
8/3/2003 13:15,29.6,0,44.7,0,33.2,0,32.9,0,24.7,0,29.9,0,71.8,0
8/3/2003 13:30,28.8,0,44.9,0,33.2,0,33,0,24.7,0,29.9,0,71.8,0
8/3/2003 13:45,28.4,0,45.2,0,33.2,0,33,0,24.8,0,29.9,0,71.8,0
8/3/2003 14:00,28.3,0,47.1,0,33.2,0,32.9,0,24.8,0,29.9,0,71.8,0
8/3/2003 14:15,28,0,45.9,0,33.2,0,32.9,0,24.9,0,30.1,0,70.3,0
8/3/2003 14:30,29.2,0,47.4,0,33.2,0,32.8,0,25,0,30.3,0,68.8,0
8/3/2003 14:45,29.9,0,50.4,0,33.2,0,32.7,0,25,0,30.5,0,67.3,0
8/3/2003 15:00,30.3,0,54.7,0,33.2,0,32.7,0,25.1,0,30.7,0,65.8,0
8/3/2003 15:15,30.7,0,65,0,33.1,0,32.5,0,24.9,0,30.6,0,65.8,0
8/3/2003 15:30,30.9,0,66.4,0,33,0,32.3,0,25,0,30.6,0,65.8,0
8/3/2003 15:45,30.9,0,65.7,0,33,0,32.3,0,25.1,0,30.5,0,65.8,0
8/3/2003 16:00,30.9,0,65.6,0,33,0,32.5,0,25.1,0,30.5,0,65.8,0
8/3/2003 16:15,31,0,65.2,0,32.9,0,32.6,0,25.2,0,30.3,0,67.1,0
8/3/2003 16:30,31,0,65.6,0,32.9,0,32.7,0,25.3,0,30,0,68.3,0
8/3/2003 16:45,31,0,66.4,0,32.8,0,32.7,0,25.4,0,29.8,0,69.6,0
8/3/2003 17:00,31.1,0,67.1,0,32.8,0,32.8,0,25.4,0,29.6,0,70.8,0
8/3/2003 17:15,31,0,67.8,0,32.7,0,32.8,0,24.6,0,29.7,0,70.3,0
8/3/2003 17:30,30.9,0,68.1,0,32.7,0,32.8,0,24.6,0,29.8,0,69.8,0
8/3/2003 17:45,30.8,0,68.4,0,32.6,0,32.8,0,24.6,0,30,0,69.3,0
8/3/2003 18:00,30.8,0,69.1,0,32.5,0,32.8,0,24.7,0,30.1,0,68.8,0
8/3/2003 18:15,30.4,0,69.2,0,32.3,0,32.7,0,24.8,0,29.9,0,69.1,0
8/3/2003 18:30,30,0,70.5,0,32.2,0,32.7,0,24.8,0,29.7,0,69.3,0
8/3/2003 18:45,29.9,0,71.4,0,32.1,0,32.6,0,24.9,0,29.5,0,69.6,0
8/3/2003 19:00,30,0,71.9,0,32,0,32.5,0,25,0,29.3,0,69.8,0
8/3/2003 19:15,29.8,0,72.2,0,31.9,0,32.5,0,24.6,0,29.1,0,70.6,0
8/3/2003 19:30,29.7,0,72.5,0,31.7,0,32.4,0,24.7,0,28.9,0,71.3,0
8/3/2003 19:45,29.8,0,72.6,0,31.7,0,32.3,0,24.7,0,28.8,0,72.1,0
8/3/2003 20:00,29.8,0,72.3,0,31.5,0,32.3,0,24.8,0,28.6,0,72.8,0
8/3/2003 20:15,30,0,73.1,0,31.5,0,32.2,0,24.9,0,28.4,0,74.1,0
8/3/2003 20:30,30.4,0,73.4,0,31.4,0,32.1,0,24.9,0,28.2,0,75.3,0
8/3/2003 20:45,30.8,0,73.3,0,31.4,0,32.1,0,25,0,28.1,0,76.6,0
8/3/2003 21:00,30.8,0,74.6,0,31.3,0,32,0,25.1,0,27.9,0,77.8,0
8/3/2003 21:15,30.9,0,76.2,0,31.3,0,31.9,0,25.1,0,27.8,0,78.3,0
8/3/2003 21:30,30.7,0,76.1,0,31.2,0,31.9,0,25.2,0,27.7,0,78.8,0
8/3/2003 21:45,30.8,0,76.5,0,31.2,0,31.8,0,25.3,0,27.7,0,79.3,0
8/3/2003 22:00,30.7,0,75.8,0,31.1,0,31.7,0,24.3,0,27.6,0,79.8,0
8/3/2003 22:15,30.7,0,74.5,0,30.9,0,31.7,0,24.1,0,27.6,0,79.8,0
8/3/2003 22:30,30.6,0,74.6,0,30.9,0,31.6,0,24.2,0,27.6,0,79.8,0
8/3/2003 22:45,30.6,0,74.6,0,30.8,0,31.6,0,24.3,0,27.7,0,79.8,0
8/3/2003 23:00,30.5,0,74.4,0,30.7,0,31.5,0,24.3,0,27.7,0,79.8,0
8/3/2003 23:15,30.4,0,74.4,0,30.6,0,31.5,0,24.4,0,27.6,0,80.3,0
8/3/2003 23:30,30.4,0,74.5,0,30.6,0,31.4,0,24.5,0,27.5,0,80.8,0
8/3/2003 23:45,30.3,0,74.3,0,30.6,0,31.4,0,24.5,0,27.4,0,81.3,0
8/4/2003 0:00,30.3,0,74,0,30.5,0,31.3,0,24.6,0,27.3,0,81.8,0
8/4/2003 0:15,30.2,0,73.7,0,30.5,0,31.2,0,24.6,0,27.3,0,81.8,0
8/4/2003 0:30,30.2,0,74.4,0,30.4,0,31.2,0,24.8,0,27.3,0,81.8,0
8/4/2003 0:45,30.2,0,74.4,0,30.3,0,31.1,0,24.9,0,27.3,0,81.8,0
8/4/2003 1:00,30.1,0,74.4,0,30.3,0,31.1,0,24.9,0,27.3,0,81.8,0
8/4/2003 1:15,30.1,0,74.4,0,30.3,0,31,0,24.9,0,27.2,0,81.8,0
8/4/2003 1:30,30,0,74.5,0,30.2,0,30.9,0,25,0,27.2,0,81.8,0
8/4/2003 1:45,30,0,74.5,0,30.2,0,30.9,0,25.1,0,27.1,0,81.8,0
8/4/2003 2:00,29.9,0,74.5,0,30.2,0,30.8,0,25.1,0,27.1,0,81.8,0
8/4/2003 2:15,29.9,0,74.5,0,30.1,0,30.8,0,25.2,0,27.1,0,82.1,0
8/4/2003 2:30,29.8,0,74.6,0,30.1,0,30.7,0,25.2,0,27,0,82.3,0
8/4/2003 2:45,29.8,0,74.6,0,30.1,0,30.7,0,25.3,0,27,0,82.6,0
8/4/2003 3:00,29.8,0,74.6,0,30.1,0,30.6,0,25.3,0,27,0,82.8,0
8/4/2003 3:15,29.7,0,74.7,0,30.1,0,30.5,0,25.4,0,27,0,83.1,0
8/4/2003 3:30,29.7,0,74.7,0,30.1,0,30.5,0,25.4,0,26.9,0,83.3,0
8/4/2003 3:45,29.6,0,74.8,0,30,0,30.4,0,25.5,0,26.9,0,83.6,0
8/4/2003 4:00,29.6,0,74.8,0,30,0,30.4,0,25.5,0,26.9,0,83.8,0
8/4/2003 4:15,29.5,0,74.9,0,29.9,0,30.3,0,25.6,0,26.9,0,84.1,0
8/4/2003 4:30,29.5,0,75,0,29.9,0,30.3,0,25.6,0,26.8,0,84.3,0
8/4/2003 4:45,29.4,0,75,0,29.9,0,30.2,0,25.7,0,26.8,0,84.6,0
8/4/2003 5:00,29.4,0,75,0,29.8,0,30.2,0,25.7,0,26.8,0,84.8,0
8/4/2003 5:15,29.4,0,75,0,29.8,0,30.1,0,25.8,0,26.7,0,85.3,0
8/4/2003 5:30,29.3,0,74.9,0,29.8,0,30,0,25.8,0,26.7,0,85.8,0
8/4/2003 5:45,29.3,0,75.1,0,29.8,0,30,0,25.2,0,26.6,0,86.3,0
8/4/2003 6:00,29.3,0,75.1,0,29.8,0,30,0,25.2,0,26.6,0,86.8,0
8/4/2003 6:15,29.3,0,74.9,0,29.9,0,30,0,25.3,0,26.7,0,86.3,0
8/4/2003 6:30,29.3,0,74.6,0,30,0,30,0,25.3,0,26.9,0,85.8,0
8/4/2003 6:45,29.3,0,74.8,0,30.1,0,30,0,25.4,0,27,0,85.3,0
8/4/2003 7:00,29.4,0,74.8,0,30.3,0,30.1,0,25.4,0,27.2,0,84.8,0
8/4/2003 7:15,29.5,0,76,0,30.5,0,30.2,0,24.6,0,27.3,0,83.8,0
8/4/2003 7:30,29.8,0,76,0,30.8,0,30.3,0,24.7,0,27.5,0,82.8,0
8/4/2003 7:45,30.1,0,74.9,0,31,0,30.4,0,24.8,0,27.6,0,81.8,0
8/4/2003 8:00,30.5,0,73.4,0,31.2,0,30.6,0,24.8,0,27.8,0,80.8,0
8/4/2003 8:15,30.6,0,72.9,0,31.5,0,30.8,0,24.8,0,28,0,79.8,0
8/4/2003 8:30,31.1,0,70.4,0,31.7,0,31,0,24.8,0,28.2,0,78.8,0
8/4/2003 8:45,29.7,0,61.8,0,32,0,31.2,0,24.8,0,28.5,0,77.8,0
8/4/2003 9:00,29.1,0,57,0,32.2,0,31.5,0,24.9,0,28.7,0,76.8,0
8/4/2003 9:15,28.9,0,54.3,0,32.4,0,31.8,0,24.2,0,29,0,75.3,0
8/4/2003 9:30,28.7,0,51.3,0,32.6,0,32,0,24.3,0,29.4,0,73.8,0
8/4/2003 9:45,29.2,0,54.4,0,32.8,0,32.3,0,24.3,0,29.7,0,72.3,0
8/4/2003 10:00,29.9,0,56.2,0,33,0,32.6,0,24.4,0,30.1,0,70.8,0
8/4/2003 10:15,30.1,0,57.8,0,33.1,0,32.8,0,24.4,0,30.4,0,69.6,0
8/4/2003 10:30,30.4,0,57.7,0,33.2,0,32.9,0,24.5,0,30.7,0,68.3,0
8/4/2003 10:45,32.8,0,51.8,0,33.3,0,33.1,0,24.6,0,31,0,67.1,0
8/4/2003 11:00,34,0,48,0,33.5,0,33.3,0,24.6,0,31.3,0,65.8,0
8/4/2003 11:15,33.9,0,47.7,0,33.7,0,33.5,0,24.6,0,31.5,0,65.6,0
8/4/2003 11:30,33.5,0,45.1,0,33.9,0,33.6,0,24.7,0,31.6,0,65.3,0
8/4/2003 11:45,32.8,0,45.1,0,34.1,0,33.8,0,24.7,0,31.8,0,65.1,0
8/4/2003 12:00,31.9,0,58.3,0,34.3,0,33.9,0,24.7,0,32,0,64.8,0
8/4/2003 12:15,32.1,0,60,0,34.4,0,34,0,24.8,0,32,0,64.8,0
8/4/2003 12:30,32,0,61.9,0,34.4,0,34.1,0,24.8,0,32,0,64.8,0
8/4/2003 12:45,32.2,0,62,0,34.4,0,34.2,0,24.9,0,32.1,0,64.8,0
8/4/2003 13:00,32.3,0,62.9,0,34.4,0,34.2,0,24.9,0,32.1,0,64.8,0
8/4/2003 13:15,32.3,0,63.1,0,34.3,0,34.2,0,24.9,0,32.1,0,65.1,0
8/4/2003 13:30,32.1,0,62,0,34.2,0,34.2,0,25,0,32.1,0,65.3,0
8/4/2003 13:45,32.5,0,62.5,0,34.2,0,34.2,0,25.2,0,32.1,0,65.6,0
8/4/2003 14:00,32.7,0,62.1,0,34.2,0,34.2,0,25.1,0,32.1,0,65.8,0
8/4/2003 14:15,32.8,0,61.5,0,34.2,0,34.2,0,25.2,0,31.9,0,66.6,0
8/4/2003 14:30,32.8,0,62.3,0,34.2,0,34.2,0,25.2,0,31.7,0,67.3,0
8/4/2003 14:45,31.4,0,55,0,34.2,0,34.2,0,25.2,0,31.5,0,68.1,0
8/4/2003 15:00,30.7,0,52.1,0,34.1,0,34.2,0,25.2,0,31.3,0,68.8,0
8/4/2003 15:15,31.5,0,61.4,0,34.1,0,34.2,0,25.3,0,31,0,69.3,0
8/4/2003 15:30,31.9,0,64,0,34.1,0,34.2,0,25.4,0,30.8,0,69.8,0
8/4/2003 15:45,32.3,0,65.3,0,34.1,0,34.2,0,25.4,0,30.5,0,70.3,0
8/4/2003 16:00,32.3,0,65.7,0,34.1,0,34.2,0,25.5,0,30.3,0,70.8,0
8/4/2003 16:15,32.3,0,65.4,0,34.1,0,34.2,0,25.5,0,30.3,0,70.6,0
8/4/2003 16:30,32.4,0,65.3,0,34,0,34.2,0,25.6,0,30.3,0,70.3,0
8/4/2003 16:45,32.4,0,65,0,34,0,34.2,0,25.7,0,30.4,0,70.1,0
8/4/2003 17:00,32.4,0,65.3,0,33.9,0,34.1,0,25.7,0,30.4,0,69.8,0
8/4/2003 17:15,32.2,0,65,0,33.9,0,34.1,0,25.8,0,30.4,0,69.6,0
8/4/2003 17:30,32.1,0,66.1,0,33.8,0,34.1,0,25.9,0,30.4,0,69.3,0
8/4/2003 17:45,32,0,67.2,0,33.7,0,34,0,25.9,0,30.4,0,69.1,0
8/4/2003 18:00,32,0,67.8,0,33.7,0,34,0,26,0,30.4,0,68.8,0
8/4/2003 18:15,31.7,0,68.9,0,33.5,0,33.7,0,26,0,30.1,0,70.3,0
8/4/2003 18:30,31.7,0,69.2,0,33.4,0,33.7,0,26.1,0,29.8,0,71.8,0
8/4/2003 18:45,31.6,0,69.2,0,33.1,0,33.7,0,26.2,0,29.5,0,73.3,0
8/4/2003 19:00,31.5,0,71,0,32.9,0,33.6,0,26.2,0,29.2,0,74.8,0
8/4/2003 19:15,31.5,0,69.4,0,32.7,0,33.5,0,25.9,0,29.1,0,75.3,0
8/4/2003 19:30,31.8,0,71.6,0,32.5,0,33.4,0,25.9,0,28.9,0,75.8,0
8/4/2003 19:45,31.8,0,73.5,0,32.4,0,33.3,0,25.9,0,28.8,0,76.3,0
8/4/2003 20:00,31.5,0,71.4,0,32.3,0,33.2,0,26,0,28.7,0,76.8,0
8/4/2003 20:15,30.9,0,60.6,0,32.2,0,33.1,0,26.1,0,28.6,0,77.3,0
8/4/2003 20:30,30.1,0,54,0,32.1,0,33,0,26.1,0,28.6,0,77.8,0
8/4/2003 20:45,29.6,0,49.3,0,32,0,32.9,0,26.2,0,28.5,0,78.3,0
8/4/2003 21:00,28.8,0,46.6,0,31.9,0,32.8,0,26.2,0,28.5,0,78.8,0
8/4/2003 21:15,28.7,0,49.2,0,31.8,0,32.7,0,25.5,0,28.4,0,79.1,0
8/4/2003 21:30,28.2,0,50.6,0,31.8,0,32.7,0,24.8,0,28.3,0,79.3,0
8/4/2003 21:45,28.8,0,57.2,0,31.7,0,32.6,0,24.9,0,28.3,0,79.6,0